{"data":{"norad_id":60064,"epoch":"2026-05-25T02:17:09.118752Z","epoch_age_seconds":62704,"freshness":"FRESH","line1":"1 60064U 24113F   26145.09524443  .00001543  00000+0  17590-4 0  9994","line2":"2 60064  53.1594 174.4070 0001027  94.2756 265.8380 15.69708972111561","mean_motion":15.69708972,"eccentricity":0.0001027,"inclination_deg":53.1594,"raan_deg":174.407,"arg_perigee_deg":94.2756,"mean_anomaly_deg":265.838,"bstar":1.759e-5,"rev_number":11156,"period_min":91.736750294882,"perigee_km":359.0377132546,"apogee_km":360.42167107317,"semimajor_km":6737.8666921639,"source":"CELESTRAK","updated_at":"2026-05-25T13:38:19.157563Z"}}